Regional Weather Roundup
Issued by NWS

Home | Current Version | Previous Version | Text Only | Print | Product List | Glossary Off
Versions: 1 2 3 4 5 6 7 8 9 10 11 12 13 14 15 16 17 18 19 20 21 22 23 24 25 26 27 28 29 30 31 32 33 34 35 36 37 38 39 40 41 42 43 44 45 46 47 48 49 50

000
ASUS43 KDTX 040210
RWRMI
MICHIGAN HOURLY REGIONAL WEATHER ROUNDUP
NATIONAL WEATHER SERVICE DETROIT/PONTIAC MI
1000 PM EDT MON AUG 03 2015

NOTE: "FAIR" INDICATES FEW OR NO CLOUDS BELOW 12,000 FEET WITH NO
SIGNIFICANT WEATHER AND/OR OBSTRUCTION TO VISIBILITY.

MIZ047>049-052>055-059>063-066>070-074>076-081>083-040300-
SOUTHEAST LOWER MICHIGAN

CITY           SKY/WX    TMP DP  RH WIND       PRES   REMARKS
ADRIAN         CLEAR     66  50  56 W7        29.88R
ALMA           PTCLDY    62  56  82 CALM      29.84S
ANN ARBOR      CLEAR     64  51  62 W7        29.85R
BAD AXE        CLOUDY    64  61  88 CALM      29.82R
DETROIT CITY   CLEAR     73  48  41 W7        29.83R
DETROIT        PTCLDY    71  49  45 W10       29.85R
FLINT          CLEAR     67  52  58 W6        29.84R
GROSSE ILE     CLEAR     72  50  46 W13       29.83R
HILLSDALE      CLEAR     64  53  68 W3        29.89R
HOWELL         CLEAR     64  51  63 W3        29.86R

CITY           SKY/WX    TMP DP  RH WIND       PRES   REMARKS
JACKSON        CLEAR     64  53  67 W7        29.87R
LAMBERTVILLE   CLEAR     69  53  57 W3        29.87S
LANSING        CLEAR     66  52  60 W5        29.86R
LAPEER         NOT AVBL
MASON          CLEAR     64  51  62 W3        29.87R
MONROE         CLEAR     66  53  63 W5        29.85R
MT. CLEMENS    PTCLDY    70  56  59 W5        29.81R
PONTIAC        PTCLDY    67  53  61 W8        29.84R
PORT HURON     CLOUDY    64  61  88 CALM      29.82R
TRI CITIES     CLEAR     68  53  58 W8        29.83R
YPSILANTI      CLEAR     73  50  44 W10       29.85R
$$
MIZ043>046-050>051-056>058-064>065-071>073-077>080-040300-
SOUTHWEST LOWER MICHIGAN

CITY           SKY/WX    TMP DP  RH WIND       PRES   REMARKS
BATTLE CREEK     N/A    N/A N/A N/A MISG      29.88R
BENTON HARBOR  CLEAR     63  58  83 CALM      29.87R
BIG RAPIDS     PTCLDY    64  50  60 W3        29.83S
COLDWATER      CLEAR     63  53  70 SW3       29.89R
HOLLAND        CLEAR     64  58  80 CALM      29.87R
GRAND RAPIDS   PTCLDY    67  52  58 SW6       29.86R
KALAMAZOO      CLEAR     66  53  63 SW3       29.89R
MARSHALL       CLEAR     64  52  64 CALM      29.87R
MUSKEGON       MOCLDY    66  57  72 SW6       29.85R
$$
MIZ016>042-040300-
NORTHERN LOWER MICHIGAN

CITY           SKY/WX    TMP DP  RH WIND       PRES   REMARKS
ALPENA         CLOUDY    65  54  67 W5        29.81R
BEAVER ISLAND  FOG       60  58  93 CALM      29.82R VSB<1/4
BELLAIRE       MOCLDY    61  58  91 CALM      29.82R
CADILLAC       PTCLDY    60  54  81 CALM      29.85R
CHARLEVOIX     MOCLDY    61  60  95 CALM      29.85R
FRANKFORT      CLEAR     61  59  93 CALM      29.83R
GAYLORD        PTCLDY    59  59 100 CALM      29.83R
GRAYLING       PTCLDY    59  53  81 CALM      29.84S
HARBOR SPRINGS PTCLDY    60  57  92 CALM      29.82R
HOUGHTON LAKE  CLOUDY    64  52  64 NW6       29.84R
MANISTEE       PTCLDY    63  54  72 CALM      29.84R
OSCODA         CLOUDY    66  59  77 SE3       29.81R
PELLSTON       CLEAR     59  57  93 W3        29.81R
TRAVERSE CITY  PTCLDY    63  55  75 CALM      29.81R
$$
MIZ007>008-015-040300-
EASTERN UPPER MICHIGAN

CITY           SKY/WX    TMP DP  RH WIND       PRES   REMARKS
KINROSS        PTCLDY    57  54  88 W6        29.80R
MACKINAC ISLAN CLOUDY    61  56  85 CALM      29.80R
NEWBERRY       CLOUDY    58  54  85 W3        29.80S
S. S. MARIE    CLOUDY    59  52  77 NW5       29.79R
$$
MIZ004>006-011>014-085-040300-
CENTRAL UPPER MICHIGAN

CITY           SKY/WX    TMP DP  RH WIND       PRES   REMARKS
MANISTIQUE     CLOUDY    61  54  77 NW6       29.81S
ESCANABA       CLOUDY    64  54  68 W3        29.81R
MENOMINEE      PTCLDY    64  52  63 CALM      29.83R
SAWYER-GWINN   CLEAR     63  50  63 W5        29.82R
$$
MIZ001>003-009>011-084-040300-
WESTERN UPPER MICHIGAN

CITY           SKY/WX    TMP DP  RH WIND       PRES   REMARKS
IRON MOUNTAIN  CLOUDY    61  53  75 CALM      29.82S
HOUGHTON       CLOUDY    60  53  77 NW10      29.80R
COPPER HARBOR    N/A     61  55  81 N12       29.77S
IRONWOOD       MOCLDY    59  57  94 W7        29.84R
$$

ABBREVIATIONS USED IN REMARKS
   TC - TEMPERATURE IN CELSIUS
  WCI - WIND CHILL INDEX
   HX - HEAT INDEX
  VSB - VISIBILITY




USA.gov is the U.S. government's official web portal to all federal, state and local government web resources and services.